This is the latest recevied weather packets stored in our database for station/object KF6YUA. If no packets are shown the sender has not sent any weather packets the latest 10 day(s).
| Time | Temp. | Humidity | Pressure | Rain* | Wind** | Luminosity | Snow |
|---|---|---|---|---|---|---|---|
| 1777333750 | 17.22° C | 63% | 1018.8 hPa | 0 mm | - | 137 W/m² | - |
| 1777333447 | 17.22° C | 62% | 1018.7 hPa | 0 mm | - | 376 W/m² | - |
| 1777333145 | 17.78° C | 61% | 1018.6 hPa | 0 mm | - | 450 W/m² | - |
| 1777332843 | 17.22° C | 62% | 1018.6 hPa | 0 mm | - | 443 W/m² | - |
| 1777332540 | 17.78° C | 60% | 1018.5 hPa | 0 mm | - | 382 W/m² | - |
| 1777332236 | 17.78° C | 63% | 1018.6 hPa | 0 mm | - | 412 W/m² | - |
| 1777331933 | 17.22° C | 63% | 1018.7 hPa | 0 mm | - | 378 W/m² | - |
| 1777331630 | 17.78° C | 61% | 1018.6 hPa | 0 mm | - | 295 W/m² | - |
| 1777331328 | 18.89° C | 62% | 1018.6 hPa | 0 mm | - | 469 W/m² | - |
| 1777331025 | 18.33° C | 62% | 1018.7 hPa | 0 mm | - | 467 W/m² | - |
| 1777330722 | 18.33° C | 64% | 1018.6 hPa | 0 mm | - | 460 W/m² | - |
| 1777330419 | 17.78° C | 65% | 1018.7 hPa | 0 mm | - | 450 W/m² | - |
| 1777330116 | 18.33° C | 64% | 1018.7 hPa | 0 mm | - | 459 W/m² | - |
| 1777329815 | 17.78° C | 63% | 1018.6 hPa | 0 mm | - | 290 W/m² | - |
| 1777329513 | 17.78° C | 63% | 1018.8 hPa | 0 mm | - | 379 W/m² | - |
| 1777329210 | 17.22° C | 64% | 1018.8 hPa | 0 mm | - | 259 W/m² | - |
| 1777328908 | 17.78° C | 62% | 1018.8 hPa | 0 mm | - | 369 W/m² | - |
| 1777328606 | 18.33° C | 63% | 1018.7 hPa | 0 mm | - | 493 W/m² | - |
| 1777328304 | 17.78° C | 63% | 1019 hPa | 0 mm | - | 524 W/m² | - |
| 1777328002 | 17.78° C | 63% | 1018.8 hPa | 0 mm | - | 542 W/m² | - |
| 1777327700 | 18.33° C | 63% | 1018.9 hPa | 0 mm | - | 396 W/m² | - |
| 1777327397 | 17.78° C | 65% | 1019 hPa | 0 mm | - | 559 W/m² | - |
| 1777327095 | 18.33° C | 65% | 1018.9 hPa | 0 mm | - | 563 W/m² | - |
| 1777326790 | 17.78° C | 66% | 1019.1 hPa | 0 mm | - | 571 W/m² | - |
| 1777326488 | 17.78° C | 67% | 1019 hPa | 0 mm | - | 602 W/m² | - |
* Rain latest hour (hover to see other rain measurements)
** Current wind speed in m/s (hover to see current wind gust speed)